CW4340 Weather Reports


time (UTC)temp
F
wind
direction
speed
knots
gust
knots
rain 1hr
in
rain 24hr
in
rain mn
in
humidity
%
barometer
mb
20260510011504 68 190 0.0 0.0 0.75 0.77 0.77 90 1010.7
20260510011005 68 354 0.0 0.0 0.74 0.76 0.76 90 1010.8
20260510010504 68 180 0.0 0.0 0.72 0.74 0.74 89 1011.4
20260510010004 68 178 0.0 0.0 0.67 0.69 0.69 88 1011.8
20260510005505 69 284 0.0 0.0 0.57 0.59 0.59 88 1011.9
20260510005004 70 347 0.0 0.0 0.41 0.43 0.43 87 1012.3
20260510004504 70 15 0.0 0.0 0.30 0.32 0.32 86 1012.2
20260510004004 72 41 0.0 2.6 0.23 0.25 0.25 85 1012.5
20260510003505 74 20 0.0 0.0 0.16 0.18 0.18 85 1012.0
20260510003004 75 314 0.0 0.0 0.07 0.09 0.09 87 1011.9
20260510002504 75 180 0.0 0.0 0.05 0.07 0.07 87 1011.4
20260510002004 76 180 0.0 0.0 0.02 0.04 0.04 87 1011.0
20260510001504 76 178 0.0 0.0 0.00 0.02 0.02 86 1011.0
20260510001004 76 207 0.0 0.0 0.00 0.02 0.02 86 1010.6
20260510000004 76 278 0.0 0.0 0.00 0.02 0.02 86 1010.2
20260509235504 76 350 0.0 0.0 0.00 0.02 0.02 86 1010.2
20260509235004 76 155 0.0 0.0 0.00 0.02 0.02 86 1010.1
20260509234504 76 202 0.0 0.0 0.00 0.02 0.02 86 1009.7
20260509234004 76 177 0.0 4.3 0.00 0.02 0.02 86 1009.6
20260509233504 76 179 0.0 2.6 0.00 0.02 0.02 85 1009.7
20260509233005 77 164 0.0 0.9 0.00 0.02 0.02 85 1009.6
20260509232504 77 164 0.0 0.0 0.00 0.02 0.02 84 1009.6
20260509232004 77 169 0.0 0.0 0.00 0.02 0.02 84 1009.7
20260509231505 77 174 0.0 0.0 0.00 0.02 0.02 84 1009.6
20260509231004 77 172 0.0 0.0 0.00 0.02 0.02 84 1009.7
20260509230504 77 170 0.0 0.0 0.00 0.02 0.02 83 1009.5
20260509230004 77 192 0.0 0.0 0.00 0.02 0.02 83 1009.5
20260509225503 77 185 0.0 0.0 0.00 0.02 0.02 82 1009.5
20260509225004 77 191 0.0 0.0 0.00 0.02 0.02 82 1009.5
20260509224504 77 186 0.0 0.0 0.00 0.02 0.02 82 1009.5
20260509224005 77 177 0.0 0.0 0.00 0.02 0.02 82 1009.5
20260509223504 78 176 0.0 0.0 0.00 0.02 0.02 81 1009.5
20260509223005 78 197 0.0 0.0 0.00 0.02 0.02 81 1009.5
20260509222505 79 182 0.0 0.0 0.00 0.02 0.02 81 1009.3
20260509222004 80 176 0.0 0.9 0.00 0.02 0.02 81 1009.3
20260509221504 81 169 0.0 0.9 0.00 0.02 0.02 81 1009.2
20260509220504 85 178 0.0 0.9 0.00 0.02 0.02 78 1008.9
20260509215504 85 180 0.0 0.0 0.00 0.02 0.02 77 1008.5
20260509214504 85 279 0.0 0.0 0.00 0.02 0.02 77 1008.5
20260509213504 86 279 0.0 0.0 0.00 0.02 0.02 78 1008.6
20260509213005 86 279 0.0 0.0 0.00 0.02 0.02 77 1008.6
20260509212504 86 279 0.0 0.0 0.00 0.02 0.02 77 1008.5
20260509212004 85 278 0.0 0.0 0.00 0.02 0.02 77 1008.5
20260509211004 85 277 0.0 0.0 0.00 0.02 0.02 78 1008.8
20260509210504 85 276 0.0 0.0 0.00 0.02 0.02 78 1008.8
20260509210004 85 271 0.0 0.0 0.00 0.02 0.02 77 1008.8
20260509205504 84 274 0.0 0.0 0.00 0.02 0.02 79 1008.9
20260509205005 84 340 0.0 0.0 0.00 0.02 0.02 79 1008.9
20260509204504 84 343 0.0 0.0 0.00 0.02 0.02 81 1009.0
20260509204004 84 343 0.0 0.0 0.00 0.02 0.02 80 1009.1
20260509203504 84 5 0.0 0.0 0.00 0.02 0.02 81 1009.1
20260509203004 84 5 0.0 0.0 0.00 0.02 0.02 80 1009.2
20260509202505 84 5 0.0 0.0 0.00 0.02 0.02 80 1009.3
20260509202005 84 5 0.0 0.0 0.00 0.02 0.02 80 1009.3
20260509201503 83 5 0.0 0.0 0.00 0.02 0.02 81 1009.4
20260509201004 83 5 0.0 0.0 0.00 0.02 0.02 81 1009.5
20260509200504 83 5 0.0 0.0 0.00 0.02 0.02 80 1009.5
20260509195504 83 5 0.0 0.0 0.00 0.02 0.02 80 1009.7
20260509194504 83 5 0.0 0.0 0.00 0.02 0.02 81 1009.7
20260509194004 83 5 0.0 0.0 0.00 0.02 0.02 81 1009.5
20260509193506 83 4 0.0 0.0 0.00 0.02 0.02 81 1009.6
20260509193004 83 355 0.0 0.0 0.00 0.02 0.02 82 1009.7
20260509192504 82 355 0.0 0.0 0.00 0.02 0.02 83 1009.8
20260509192004 82 177 0.0 0.0 0.00 0.02 0.02 83 1010.0
20260509191504 82 177 0.0 0.0 0.00 0.02 0.02 83 1010.0
20260509191004 82 177 0.0 0.0 0.00 0.02 0.02 84 1010.1
20260509190503 82 177 0.0 0.0 0.00 0.02 0.02 83 1010.1
20260509185504 82 177 0.0 0.0 0.00 0.02 0.02 82 1010.3
20260509185004 82 177 0.0 0.0 0.00 0.02 0.02 83 1010.4
20260509184503 82 177 0.0 0.0 0.00 0.02 0.02 83 1010.3
20260509184004 82 177 0.0 0.0 0.00 0.02 0.02 83 1010.3
20260509183504 82 189 0.0 0.0 0.00 0.02 0.02 83 1010.3
20260509183004 82 189 0.0 0.0 0.00 0.02 0.02 84 1010.5
20260509182005 82 198 0.0 0.0 0.00 0.02 0.02 84 1010.6
20260509181504 82 198 0.0 0.0 0.00 0.02 0.02 83 1010.7
20260509181004 82 198 0.0 0.0 0.00 0.02 0.02 83 1010.7
20260509180504 82 198 0.0 0.0 0.00 0.02 0.02 83 1010.8
20260509180005 82 198 0.0 0.0 0.00 0.02 0.02 83 1010.7
20260509175004 81 198 0.0 0.0 0.00 0.02 0.02 83 1010.8
20260509174504 81 198 0.0 0.0 0.00 0.02 0.02 83 1010.9
20260509173504 81 175 0.0 0.0 0.00 0.02 0.02 83 1011.0
20260509173005 81 182 0.0 0.0 0.00 0.02 0.02 83 1011.0
20260509172504 81 182 0.0 0.0 0.00 0.02 0.02 84 1011.1
20260509172004 81 182 0.0 0.0 0.00 0.02 0.02 84 1011.1
20260509171504 81 182 0.0 0.0 0.00 0.02 0.02 84 1011.1
20260509171004 81 183 0.0 0.0 0.00 0.02 0.02 85 1011.1
20260509170504 80 174 0.0 0.0 0.00 0.02 0.02 86 1011.1
20260509170003 80 172 0.0 0.0 0.00 0.02 0.02 87 1011.1
20260509165504 80 167 0.0 0.0 0.00 0.02 0.02 88 1011.1
20260509164504 79 167 0.0 0.0 0.00 0.02 0.02 90 1011.1
20260509164004 78 167 0.0 0.0 0.00 0.02 0.02 90 1011.1
20260509163504 78 167 0.0 0.0 0.00 0.02 0.02 91 1011.2
20260509163004 78 167 0.0 0.0 0.00 0.02 0.02 91 1011.2
20260509162504 78 167 0.0 0.0 0.00 0.02 0.02 92 1011.3
20260509162004 78 167 0.0 0.0 0.00 0.02 0.02 92 1011.4
20260509161504 78 170 0.0 0.0 0.00 0.02 0.02 93 1011.6
20260509161004 77 170 0.0 0.0 0.00 0.02 0.02 93 1011.5
20260509160504 77 170 0.0 0.0 0.00 0.02 0.02 93 1011.6
20260509160004 77 183 0.0 0.0 0.00 0.02 0.02 93 1011.7
20260509155504 77 188 0.0 0.0 0.00 0.02 0.02 94 1011.6
20260509154504 76 188 0.0 0.0 0.00 0.02 0.02 94 1011.5
20260509154004 76 188 0.0 0.0 0.00 0.02 0.02 94 1011.4
20260509153504 76 188 0.0 0.0 0.00 0.02 0.02 94 1011.5
20260509153004 76 188 0.0 0.0 0.00 0.02 0.02 94 1011.4
20260509152504 76 188 0.0 0.0 0.00 0.02 0.02 94 1011.4
20260509151504 76 188 0.0 0.0 0.00 0.02 0.02 94 1011.4
20260509151005 76 188 0.0 0.0 0.00 0.02 0.02 94 1011.2
20260509150004 76 188 0.0 0.0 0.00 0.02 0.02 94 1010.8
20260509145504 76 181 0.0 0.0 0.00 0.02 0.02 94 1010.7
20260509145004 76 181 0.0 0.0 0.00 0.02 0.02 94 1010.6
20260509144004 75 188 0.0 0.0 0.00 0.02 0.02 94 1010.5
20260509143504 75 188 0.0 0.0 0.00 0.02 0.02 94 1010.6
20260509142504 75 188 0.0 0.0 0.00 0.02 0.02 94 1010.6
20260509141504 75 188 0.0 0.0 0.00 0.02 0.02 94 1010.8
20260509141004 75 188 0.0 0.0 0.00 0.02 0.02 94 1010.8
20260509135504 74 188 0.0 0.0 0.00 0.02 0.02 94 1010.9
20260509135004 74 188 0.0 0.0 0.00 0.02 0.02 94 1010.8
20260509134503 74 188 0.0 0.0 0.00 0.02 0.02 94 1010.9
20260509134003 74 188 0.0 0.0 0.00 0.02 0.02 94 1011.0
20260509133504 74 188 0.0 0.0 0.00 0.02 0.02 94 1011.1
20260509133004 74 188 0.0 0.0 0.01 0.02 0.02 94 1011.1
20260509132504 74 188 0.0 0.0 0.01 0.02 0.02 94 1011.2